East Quogue, NY

9:53 PM EST on February 24, 2017 (GMT -0500)
The Gabreski

Weather History for KFOK - March, 2013

Change the Weather History Date:

Saturday, March 23, 2013

  Actual Average Record
Temperature  
Mean Temperature 36 °F -  
Max Temperature 48 °F 46 °F 71 °F (2012)
Min Temperature 27 °F 29 °F 5 °F (2004)
Degree Days  
Heating Degree Days 28    
Moisture  
Dew Point 18 °F    
Average Humidity 44    
Maximum Humidity 66    
Minimum Humidity 30    
Precipitation  
Precipitation 0.00 in - - ()
Sea Level Pressure  
Sea Level Pressure 29.83 in    
Wind  
Wind Speed 14 mph (WNW)    
Max Wind Speed 24 mph    
Max Gust Speed 34 mph    
Visibility 10 miles    
Events      
Averages and records for this station are not official NWS values.
T = Trace of Precipitation, MM = Missing Value Source: NWS Daily Summary

Daily Weather History Graph

Daily Weather History Graph

Search for Another Location

Airport or City:

Trip Planner

Search our weather history database for the weather conditions in past years. The results will help you decide how hot, cold, wet, or windy it might be!

Date:

Astronomy

Mar. 23, 2013 Rise Set
Actual Time 6:48 AM EDT 7:06 PM EDT
Civil Twilight 6:21 AM EDT 7:33 PM EDT
Nautical Twilight 5:49 AM EDT 8:05 PM EDT
Astronomical Twilight 5:16 AM EDT 8:38 PM EDT
Moon 3:28 PM EDT (3/23) 4:24 AM EDT (3/23)
Length of Visible Light 13h 12m
Length of Day
12h 17m
Waxing Gibbous, 85% of the Moon is Illuminated
Mar 23
Waxing Gibbous
Mar 27
Full
Apr 3
Last Quarter
Apr 10
New
Apr 18
First Quarter

Hourly Weather History & Observations

Time (EDT) Temp. Windchill Dew Point Humidity Pressure Visibility Wind Dir Wind Speed Gust Speed Precip Events Conditions
12:53 AM 35.1 °F 25.9 °F 19.0 °F 52% 29.86 in 10.0 mi WNW 13.8 mph 20.7 mph N/A   Clear
1:53 AM 35.1 °F 26.4 °F 18.0 °F 50% 29.86 in 10.0 mi WNW 12.7 mph - N/A   Clear
2:53 AM 34.0 °F 26.0 °F 18.0 °F 52% 29.85 in 10.0 mi West 10.4 mph - N/A   Clear
3:53 AM 33.1 °F 24.9 °F 18.0 °F 54% 29.84 in 10.0 mi West 10.4 mph - N/A   Clear
4:53 AM 28.0 °F 22.8 °F 16.0 °F 61% 29.84 in 10.0 mi West 4.6 mph - N/A   Clear
5:53 AM 27.0 °F 19.5 °F 17.1 °F 66% 29.85 in 10.0 mi WSW 6.9 mph - N/A   Clear
6:53 AM 28.0 °F 20.8 °F 18.0 °F 66% 29.86 in 10.0 mi West 6.9 mph - N/A   Clear
7:53 AM 32.0 °F 24.2 °F 21.0 °F 64% 29.86 in 10.0 mi WSW 9.2 mph - N/A   Clear
8:53 AM 37.9 °F 28.5 °F 19.0 °F 47% 29.84 in 10.0 mi West 17.3 mph 24.2 mph N/A   Clear
9:53 AM 41.0 °F 31.9 °F 19.0 °F 41% 29.83 in 10.0 mi West 19.6 mph 31.1 mph N/A   Clear
10:53 AM 43.0 °F 34.5 °F 18.0 °F 37% 29.81 in 10.0 mi WNW 19.6 mph 32.2 mph N/A   Clear
11:53 AM 44.1 °F 35.2 °F 19.0 °F 37% 29.82 in 10.0 mi WNW 23.0 mph 32.2 mph N/A   Partly Cloudy
12:53 PM 45.0 °F 36.2 °F 17.1 °F 33% 29.81 in 10.0 mi NW 24.2 mph 33.4 mph N/A   Scattered Clouds
1:53 PM 46.0 °F 37.8 °F 17.1 °F 31% 29.80 in 10.0 mi WNW 23.0 mph 34.5 mph N/A   Mostly Cloudy
2:53 PM 46.0 °F 37.6 °F 16.0 °F 30% 29.78 in 10.0 mi NW 24.2 mph 32.2 mph N/A   Partly Cloudy
3:53 PM 46.9 °F - 17.1 °F 30% 29.77 in 10.0 mi WNW 20.7 mph 33.4 mph N/A   Partly Cloudy
4:53 PM 46.0 °F 37.8 °F 16.0 °F 30% 29.77 in 10.0 mi WNW 23.0 mph 32.2 mph N/A   Partly Cloudy
5:53 PM 45.0 °F 36.6 °F 15.1 °F 30% 29.78 in 10.0 mi WNW 21.9 mph 31.1 mph N/A   Clear
6:53 PM 43.0 °F 34.5 °F 15.1 °F 32% 29.81 in 10.0 mi WNW 19.6 mph 25.3 mph N/A   Clear
7:53 PM 39.9 °F 31.4 °F 16.0 °F 38% 29.83 in 10.0 mi WNW 16.1 mph - N/A   Clear
8:53 PM 39.0 °F 31.8 °F 17.1 °F 41% 29.87 in 10.0 mi WNW 11.5 mph - N/A   Clear
9:53 PM 37.9 °F 32.7 °F 17.1 °F 43% 29.88 in 10.0 mi WNW 6.9 mph - N/A   Partly Cloudy
10:53 PM 37.0 °F 31.6 °F 19.0 °F 48% 29.90 in 10.0 mi NNW 6.9 mph - N/A   Clear
11:53 PM 34.0 °F 28.8 °F 18.0 °F 52% 29.91 in 10.0 mi NNW 5.8 mph - N/A   Clear